Location: Palmerston North
(40.3500°S, 175.6170°E)
Time: 15:09:57
(UTC+13:00)

Meteor 2-6 Rocket - Pass Details

Date: 24 January 2019
Orbit: 806 x 914 km, 81.3° (Epoch: 13 October)

Event Time Altitude Azimuth Distance (km) Brightness Sun altitude
Exits shadow 23:34:14 56° 81° (E) 969 4.2 -24.7°
Maximum altitude 23:34:20 56° 85° (E) 968 4.2 -24.7°
Drops below altitude 10° 23:39:40 10° 162° (SSE) 2,429 7.1 -25.2°
Sets 23:42:07 0° 166° (SSE) 3,376 8.0 -25.4°
